Weather in Shovkhal-Berdy

Russia / Chechen Republic     43°06′45″N   46°19′11″E
temp.,
°C
wind,
m/s
gust,
m/s
humid.,
%
clouds,
%
prec.,
mm/h
press.,
hPa
HPBL,
m
20 april, tue
tue2000:00+13sse118391 0.0 101517
03:00+12se1181100 0.0 101317
06:00+13sse2269100 0.0 101136
09:00+20e1243100 0.0 1008380
12:00+26n233299 0.0 10061210
15:00+28sw2525100 0.0 10031968
18:00+20sw2355100 0.0 100657
21:00+16s345694 0.0 100868
21 april, wed
wed2100:00+15w3770100 0.0 1012402
03:00+11wnw4894100 0.1 1015682
06:00+9sw248481 0.2 1017280
09:00+13nw336359 0.2 10171012
12:00+15nnw435351 0.0 10161193
15:00+14nnw325595 0.1 10171156
18:00+9nnw1186100 1.9 1020267
21:00+8w129778 3.9 1021154
22 april, thu
thu2200:00+8w019391 0.2 102196
03:00+8ssw0190100 0.2 102182
06:00+8nne129381 0.0 1021161
09:00+10n228297 0.1 1022716
12:00+9nnw2283100 0.3 1023681
15:00+8n1285100 0.3 1023559
18:00+8ne1187100 0.0 1023158
21:00+8nne1289100 0.1 1023124
23 april, fri
fri2300:00+7nnw2292100 0.0 1022290
03:00+6w1298100 1.3 1023206
06:00+6w1297100 1.6 1024179
09:00+6nw2398100 3.8 1024400
12:00+6wsw1293100 4.0 1025270
15:00+8w238488 4.3 1024511
18:00+9w117962 0.0 102322
21:00+6s22835 0.0 102519
24 april, sat
sat2400:00+6s22740 0.0 102418
03:00+6sse3271100 0.0 102321
06:00+7sse326969 0.0 102336
09:00+14nne224672 0.0 1020731
12:00+18nne33405 0.0 10171249
15:00+18n33457 0.0 10161162
18:00+14nnw116834 0.0 101613
21:00+11s21715 0.0 101614